Dades meteomassalio
Diari Summary for Noviembre 21, 2017 Units:  Metric    English   Both
« Previous Day
Next Day »
Diari Semanal Mensual Anual Personalitzat
  Maxima: Minima: Mijana:
Temperatura: -17.8 °C -20.2 °C -15.9 °C
Rosada: -17.8 °C -21.9 °C -20.3 °C
Humitat: Humidity % 31 % 59 %
Velocitat del vent: 0 km/h 0 km/h 1.6 km/h
Racha vent: 0 km/h - -
Vent:- - ESE
Pressio: 0 hPa 34659.1 hPa -
Pluja: 0 mm    
Historical Graphs
 
 
Tabular Data for Noviembre 21, 2017
Time Temperature Dew Point Pressure Wind Wind Speed Wind Gust Humidity Rainfall Rate (Hourly) solar Conditions
-17.8 °C -17.8 °C 0 hPa Calm     Humidity % 0 mm SolarRadiationWatts/m^2 W/m2 Conditions
00:05 -17.8 °C -20.6 °C 34774.2 hPa Calm     69 % 0 mm 0.0 W/m2 CLR
00:10 -17.8 °C -20.4 °C 34774.2 hPa Calm     70 % 0 mm 0.0 W/m2 CLR
00:15 -18.1 °C -20.7 °C 34774.2 hPa Calm     70 % 0 mm 0.0 W/m2 CLR
00:20 -18.1 °C -20.7 °C 34774.2 hPa Calm     70 % 0 mm 0.0 W/m2 CLR
00:25 -18.1 °C -20.7 °C 34774.2 hPa Calm     70 % 0 mm 0.0 W/m2 CLR
00:35 -18.4 °C -21.1 °C 34774.2 hPa Calm     70 % 0 mm 0.0 W/m2 CLR
00:40 -18.4 °C -21.1 °C 34774.2 hPa Calm     70 % 0 mm 0.0 W/m2 CLR
00:45 -18.4 °C -20.9 °C 34774.2 hPa Calm     71 % 0 mm 0.0 W/m2 CLR
01:00 -18.7 °C -21.1 °C 34774.2 hPa Calm     73 % 0 mm 0.0 W/m2 CLR
01:05 -18.7 °C -21.1 °C 34774.2 hPa Calm     73 % 0 mm 0.0 W/m2 CLR
01:10 -18.7 °C -20.9 °C 34774.2 hPa Calm     74 % 0 mm 0.0 W/m2 CLR
01:15 -18.7 °C -21.1 °C 34774.2 hPa Calm     73 % 0 mm 0.0 W/m2 CLR
01:22 -18.7 °C -21.1 °C 34774.2 hPa Calm     73 % 0 mm 0.0 W/m2 CLR
01:27 -18.7 °C -21.1 °C 34774.2 hPa Calm     73 % 0 mm 0.0 W/m2 CLR
01:28 -18.7 °C -21.1 °C 34774.2 hPa Calm     73 % 0 mm 0.0 W/m2 CLR
01:29 -18.7 °C -21.1 °C 34774.2 hPa Calm     73 % 0 mm 0.0 W/m2 CLR
01:37 -19 °C -21.2 °C 34774.2 hPa Calm     74 % 0 mm 0.0 W/m2 CLR
01:47 -19 °C -21.2 °C 34774.2 hPa Calm     74 % 0 mm 0.0 W/m2 CLR
01:52 -19 °C -21.2 °C 34774.2 hPa Calm     75 % 0 mm 0.0 W/m2 CLR
01:57 -19.3 °C -21.4 °C 34774.2 hPa Calm     75 % 0 mm 0.0 W/m2 CLR
02:02 -19.3 °C -21.6 °C 34774.2 hPa Calm     74 % 0 mm 0.0 W/m2 CLR
02:07 -19 °C -21.4 °C 34774.2 hPa Calm     72 % 0 mm 0.0 W/m2 CLR
02:12 -19 °C -21.3 °C 34774.2 hPa Calm     73 % 0 mm 0.0 W/m2 CLR
02:22 -19 °C -21.2 °C 34774.2 hPa Calm     74 % 0 mm 0.0 W/m2 CLR
02:37 -19 °C -21.2 °C 34774.2 hPa Calm     74 % 0 mm 0.0 W/m2 CLR
02:42 -19 °C -21.2 °C 34774.2 hPa Calm     75 % 0 mm 0.0 W/m2 CLR
02:47 -19 °C -21.2 °C 34774.2 hPa Calm     75 % 0 mm 0.0 W/m2 CLR
02:52 -19 °C -21.1 °C 34760.7 hPa Calm     76 % 0 mm 0.0 W/m2 CLR
02:57 -19 °C -21.1 °C 34760.7 hPa Calm     76 % 0 mm 0.0 W/m2 CLR
03:07 -19 °C -20.9 °C 34760.7 hPa Calm     77 % 0 mm 0.0 W/m2 CLR
03:12 -19.3 °C -21.3 °C 34760.7 hPa Calm     77 % 0 mm 0.0 W/m2 CLR
03:22 -19 °C -20.9 °C 34760.7 hPa Calm     78 % 0 mm 0.0 W/m2 CLR
03:27 -19 °C -20.9 °C 34750.5 hPa Calm     78 % 0 mm 0.0 W/m2 CLR
03:37 -18.7 °C -20.6 °C 34760.7 hPa Calm     78 % 0 mm 0.0 W/m2 CLR
03:42 -18.7 °C -20.7 °C 34750.5 hPa Calm     76 % 0 mm 0.0 W/m2 CLR
03:53 -18.7 °C -20.7 °C 34750.5 hPa Calm     77 % 0 mm 0.0 W/m2 CLR
03:58 -18.7 °C -20.7 °C 34750.5 hPa Calm     77 % 0 mm 0.0 W/m2 CLR
04:03 -18.7 °C -20.6 °C 34750.5 hPa Calm     78 % 0 mm 0.0 W/m2 CLR
04:08 -18.7 °C -20.4 °C 34750.5 hPa Calm     79 % 0 mm 0.0 W/m2 CLR
04:14 -18.7 °C -20.4 °C 34750.5 hPa Calm     79 % 0 mm 0.0 W/m2 CLR
04:19 -19 °C -20.8 °C 34750.5 hPa Calm     79 % 0 mm 0.0 W/m2 CLR
04:24 -19 °C -20.9 °C 34750.5 hPa Calm     78 % 0 mm 0.0 W/m2 CLR
04:25 -19 °C -20.9 °C 34750.5 hPa Calm     78 % 0 mm 0.0 W/m2 CLR
04:30 -19 °C -20.9 °C 34750.5 hPa Calm     78 % 0 mm 0.0 W/m2 CLR
04:35 -19.3 °C -21.1 °C 34750.5 hPa Calm     79 % 0 mm 0.0 W/m2 CLR
04:40 -19.3 °C -21.1 °C 34750.5 hPa Calm     79 % 0 mm 0.0 W/m2 CLR
04:45 -19.3 °C -20.9 °C 34750.5 hPa Calm     80 % 0 mm 0.0 W/m2 CLR
04:56 -19 °C -20.7 °C 34750.5 hPa Calm     80 % 0 mm 0.0 W/m2 CLR
05:01 -19 °C -20.7 °C 34750.5 hPa Calm     80 % 0 mm 0.0 W/m2 CLR
05:06 -19 °C -20.7 °C 34750.5 hPa Calm     80 % 0 mm 0.0 W/m2 CLR
05:21 -19.3 °C -20.9 °C 34740.4 hPa Calm     80 % 0 mm 0.0 W/m2 CLR
05:31 -19.3 °C -21.1 °C 34750.5 hPa Calm     79 % 0 mm 0.0 W/m2 CLR
05:36 -19.6 °C -21.3 °C 34750.5 hPa Calm     79 % 0 mm 0.0 W/m2 CLR
05:47 -19.6 °C -21.3 °C 34750.5 hPa Calm     80 % 0 mm 0.0 W/m2 CLR
05:52 -19.3 °C -20.9 °C 34750.5 hPa Calm     81 % 0 mm 0.0 W/m2 CLR
05:57 -19.3 °C -20.9 °C 34750.5 hPa Calm     81 % 0 mm 0.0 W/m2 CLR
06:02 -19.3 °C -20.8 °C 34750.5 hPa Calm     82 % 0 mm 0.0 W/m2 CLR
06:07 -19.3 °C -20.9 °C 34750.5 hPa Calm     81 % 0 mm 0.0 W/m2 CLR
06:12 -19.6 °C -21.1 °C 34750.5 hPa Calm     82 % 0 mm 0.0 W/m2 CLR
06:17 -19.6 °C -21.1 °C 34750.5 hPa Calm     82 % 0 mm 0.0 W/m2 CLR
06:22 -19.6 °C -21.1 °C 34750.5 hPa Calm     82 % 0 mm 0.0 W/m2 CLR
06:32 -19.9 °C -21.7 °C 34750.5 hPa Calm     79 % 0 mm 0.0 W/m2 CLR
06:37 -19.9 °C -21.5 °C 34750.5 hPa Calm     81 % 0 mm 0.0 W/m2 CLR
06:42 -19.9 °C -21.5 °C 34750.5 hPa Calm     81 % 0 mm 0.0 W/m2 CLR
06:52 -19.9 °C -21.4 °C 34750.5 hPa Calm     82 % 0 mm 0.0 W/m2 CLR
06:57 -19.9 °C -21.4 °C 34750.5 hPa Calm     82 % 0 mm 0.0 W/m2 CLR
07:07 -20.2 °C -21.7 °C 34750.5 hPa Calm     82 % 0 mm 0.0 W/m2 CLR
07:12 -20.2 °C -21.8 °C 34750.5 hPa Calm     81 % 0 mm 0.0 W/m2 CLR
07:17 -20.2 °C -21.8 °C 34750.5 hPa Calm     81 % 0 mm 0.0 W/m2 CLR
07:32 -19.9 °C -21.4 °C 34750.5 hPa Calm     82 % 0 mm 0.0 W/m2 CLR
07:37 -19.9 °C -21.4 °C 34760.7 hPa Calm     82 % 0 mm 0.0 W/m2 CLR
07:42 -19.9 °C -21.5 °C 34760.7 hPa Calm     81 % 0 mm 0.0 W/m2 CLR
07:47 -19.9 °C -21.5 °C 34750.5 hPa Calm     81 % 0 mm 5.0 W/m2 OVC
07:52 -19.9 °C -21.5 °C 34750.5 hPa Calm     81 % 0 mm 5.0 W/m2 OVC
07:57 -19.9 °C -21.6 °C 34760.7 hPa Calm     80 % 0 mm 7.0 W/m2 BKN
08:02 -19.9 °C -21.6 °C 34760.7 hPa Calm     80 % 0 mm 12.0 W/m2 BKN
08:07 -19.9 °C -21.6 °C 34760.7 hPa Calm     80 % 0 mm 16.0 W/m2 BKN
08:12 -19.9 °C -21.5 °C 34760.7 hPa Calm     81 % 0 mm 18.0 W/m2 BKN
08:17 -19.9 °C -21.5 °C 34760.7 hPa Calm     81 % 0 mm 21.0 W/m2 BKN
08:22 -19.9 °C -21.4 °C 34760.7 hPa Calm     82 % 0 mm 25.0 W/m2 BKN
08:27 -19.9 °C -21.5 °C 34760.7 hPa Calm     81 % 0 mm 33.0 W/m2 BKN
08:32 -19.9 °C -21.6 °C 34760.7 hPa Calm     80 % 0 mm 40.0 W/m2 BKN
08:37 -19.9 °C -21.7 °C 34774.2 hPa Calm     79 % 0 mm 44.0 W/m2 BKN
08:42 -19.9 °C -21.7 °C 34774.2 hPa Calm     79 % 0 mm 54.0 W/m2 SCT
08:47 -19.9 °C -21.8 °C 34774.2 hPa Calm     78 % 0 mm 58.0 W/m2 SCT
08:58 -19.6 °C -21.7 °C 34774.2 hPa Calm     75 % 0 mm 100.0 W/m2 FEW
09:03 -19.6 °C -21.8 °C 34774.2 hPa Calm     74 % 0 mm 109.0 W/m2 CLR
09:08 -19.3 °C -21.6 °C 34774.2 hPa Calm     73 % 0 mm 123.0 W/m2 CLR
09:13 -19.3 °C -21.6 °C 34774.2 hPa Calm     73 % 0 mm 134.0 W/m2 CLR
09:23 -19 °C -21.8 °C 34774.2 hPa Calm     69 % 0 mm 172.0 W/m2 CLR
09:28 -19 °C -21.9 °C 34774.2 hPa Calm     67 % 0 mm 185.0 W/m2 CLR
09:38 -18.4 °C -21.6 °C 34784.4 hPa Calm     65 % 0 mm 214.0 W/m2 CLR
09:43 -18.1 °C -21.4 °C 34784.4 hPa Calm     64 % 0 mm 221.0 W/m2 CLR
09:48 -18.1 °C -21.4 °C 34774.2 hPa Calm     64 % 0 mm 246.0 W/m2 CLR
09:58 -17.8 °C -21.6 °C 34784.4 hPa Calm     60 % 0 mm 265.0 W/m2 CLR
10:08 -16.8 °C -21.1 °C 34784.4 hPa Calm     57 % 0 mm 295.0 W/m2 CLR
10:18 -16.2 °C -20.8 °C 34774.2 hPa Calm     55 % 0 mm 316.0 W/m2 CLR
10:23 -15.9 °C -20.6 °C 34774.2 hPa Calm     54 % 0 mm 327.0 W/m2 CLR
10:28 -15.9 °C -20.9 °C 34774.2 hPa Calm     52 % 0 mm 334.0 W/m2 CLR
10:38 -15.3 °C -20.7 °C 34774.2 hPa Calm     49 % 0 mm 355.0 W/m2 CLR
10:43 -15 °C -20.6 °C 34774.2 hPa Calm     48 % 0 mm 355.0 W/m2 CLR
10:53 -14.4 °C -20.5 °C 34774.2 hPa Calm     45 % 0 mm 360.0 W/m2 CLR
10:58 -14.1 °C -20.2 °C 34774.2 hPa Calm     45 % 0 mm 392.0 W/m2 CLR
11:03 -13.8 °C -19.9 °C 34774.2 hPa Calm     45 % 0 mm 401.0 W/m2 CLR
11:08 -13.4 °C -19.7 °C 34774.2 hPa Calm     45 % 0 mm 408.0 W/m2 CLR
11:13 -13.2 °C -19.4 °C 34784.4 hPa Calm     45 % 0 mm 415.0 W/m2 CLR
11:18 -12.8 °C -19.5 °C 34784.4 hPa Calm     43 % 0 mm 420.0 W/m2 CLR
11:23 -12.6 °C -19.2 °C 34774.2 hPa Calm     43 % 0 mm 427.0 W/m2 CLR
11:28 -12.2 °C -18.9 °C 34774.2 hPa Calm     43 % 0 mm 434.0 W/m2 CLR
11:33 -11.9 °C -18.6 °C 34774.2 hPa Calm     43 % 0 mm 438.0 W/m2 CLR
11:38 -11.9 °C -18.6 °C 34774.2 hPa Calm     43 % 0 mm 445.0 W/m2 CLR
11:48 -11.6 °C -18.5 °C 34774.2 hPa East 9 km/h 9 km/h 42 % 0 mm 454.0 W/m2 CLR
11:58 -11.6 °C -18.3 °C 34760.7 hPa East 6 km/h 6 km/h 43 % 0 mm 461.0 W/m2 CLR
12:03 -11.3 °C -18.2 °C 34760.7 hPa East 9 km/h 9 km/h 42 % 0 mm 464.0 W/m2 CLR
12:08 -11.3 °C -18.2 °C 34760.7 hPa East 3.1 km/h 3.1 km/h 42 % 0 mm 469.0 W/m2 CLR
12:13 -11 °C -17.9 °C 34750.5 hPa SE 9 km/h 9 km/h 42 % 0 mm 473.0 W/m2 CLR
12:18 -11 °C -18.2 °C 34750.5 hPa East 7.7 km/h 7.7 km/h 41 % 0 mm 475.0 W/m2 CLR
12:23 -10.7 °C -17.9 °C 34750.5 hPa East 7.7 km/h 7.7 km/h 41 % 0 mm 476.0 W/m2 CLR
12:28 -10.7 °C -17.9 °C 34750.5 hPa ENE 9 km/h 9 km/h 41 % 0 mm 478.0 W/m2 CLR
12:38 -10.4 °C -17.8 °C 34740.4 hPa SE 6 km/h 6 km/h 40 % 0 mm 480.0 W/m2 CLR
12:43 -10.1 °C -17.3 °C 34740.4 hPa ENE 2.6 km/h 2.6 km/h 41 % 0 mm 480.0 W/m2 CLR
12:53 -10.1 °C -17.7 °C 34740.4 hPa SE 9 km/h 9 km/h 39 % 0 mm 482.0 W/m2 CLR
12:58 -9.8 °C -17.6 °C 34740.4 hPa East 10.3 km/h 10.3 km/h 38 % 0 mm 478.0 W/m2 CLR
13:03 -9.8 °C -17.8 °C 34726.8 hPa Calm     37 % 0 mm 480.0 W/m2 CLR
13:08 -9.8 °C -17.8 °C 34726.8 hPa ENE 9 km/h 9 km/h 37 % 0 mm 478.0 W/m2 CLR
13:13 -9.4 °C -17.7 °C 34726.8 hPa Calm   1.8 km/h 36 % 0 mm 476.0 W/m2 CLR
13:18 -9.4 °C -17.7 °C 34716.7 hPa ENE 9 km/h 9 km/h 36 % 0 mm 476.0 W/m2 CLR
13:23 -9.4 °C -17.7 °C 34716.7 hPa NE 9 km/h 9 km/h 36 % 0 mm 473.0 W/m2 CLR
13:38 -9.4 °C -18.2 °C 34716.7 hPa ENE 6 km/h   34 % 0 mm 462.0 W/m2 CLR
13:43 -9.4 °C -18.7 °C 34716.7 hPa NE 9 km/h 9 km/h 32 % 0 mm 459.0 W/m2 CLR
13:54 -9.1 °C -18.4 °C 34703.1 hPa ENE 7.7 km/h 7.7 km/h 32 % 0 mm 448.0 W/m2 CLR
13:59 -9.1 °C -18.7 °C 34703.1 hPa ENE 10.3 km/h 10.3 km/h 31 % 0 mm 436.0 W/m2 CLR
14:04 -8.8 °C -18.1 °C 34693 hPa ENE 9 km/h 9 km/h 32 % 0 mm 438.0 W/m2 CLR
14:09 -8.8 °C -18.1 °C 34693 hPa NNE 3.1 km/h 3.1 km/h 32 % 0 mm 432.0 W/m2 CLR
14:14 -8.8 °C -18.4 °C 34693 hPa NE 9 km/h 9 km/h 31 % 0 mm 427.0 W/m2 CLR
14:19 -8.8 °C -18.1 °C 34693 hPa NE 6 km/h 6 km/h 32 % 0 mm 418.0 W/m2 CLR
14:24 -8.8 °C -18.1 °C 34693 hPa ENE 6 km/h   32 % 0 mm 413.0 W/m2 CLR
14:29 -8.8 °C -18.4 °C 34682.8 hPa Calm     31 % 0 mm 404.0 W/m2 CLR
14:39 -8.8 °C -18.4 °C 34682.8 hPa Calm     31 % 0 mm 390.0 W/m2 CLR
14:44 -8.8 °C -18.4 °C 34682.8 hPa Calm     31 % 0 mm 381.0 W/m2 CLR
14:54 -8.8 °C -18.4 °C 34682.8 hPa East 6 km/h 6 km/h 31 % 0 mm 353.0 W/m2 CLR
15:04 -8.5 °C -18.1 °C 34682.8 hPa Calm     31 % 0 mm 341.0 W/m2 CLR
15:09 -8.5 °C -18.1 °C 34682.8 hPa Calm     31 % 0 mm 332.0 W/m2 CLR
15:14 -8.5 °C -18.1 °C 34682.8 hPa East 6 km/h 6 km/h 31 % 0 mm 323.0 W/m2 CLR
15:19 -8.5 °C -18.1 °C 34682.8 hPa East 6 km/h 6 km/h 31 % 0 mm 313.0 W/m2 CLR
15:24 -8.5 °C -17.8 °C 34669.3 hPa East 5.1 km/h 5.1 km/h 32 % 0 mm 301.0 W/m2 CLR
15:29 -8.5 °C -17.8 °C 34669.3 hPa Calm     32 % 0 mm 290.0 W/m2 CLR
15:44 -8.5 °C -17.8 °C 34669.3 hPa East 7.7 km/h 7.7 km/h 32 % 0 mm 251.0 W/m2 CLR
15:54 -8.8 °C -18.1 °C 34669.3 hPa East 9 km/h 9 km/h 32 % 0 mm 221.0 W/m2 CLR
15:59 -8.8 °C -18.1 °C 34669.3 hPa ENE 6 km/h 6 km/h 32 % 0 mm 206.0 W/m2 CLR
16:04 -8.8 °C -18.1 °C 34669.3 hPa ENE 9 km/h 9 km/h 32 % 0 mm 190.0 W/m2 CLR
16:09 -9.1 °C -18.4 °C 34669.3 hPa ENE 9 km/h 9 km/h 32 % 0 mm 172.0 W/m2 CLR
16:14 -9.4 °C -18.7 °C 34659.1 hPa ENE 9 km/h 9 km/h 32 % 0 mm 160.0 W/m2 CLR
16:19 -9.4 °C -18.4 °C 34669.3 hPa ENE 9 km/h 9 km/h 33 % 0 mm 146.0 W/m2 CLR
16:24 -9.4 °C -18.4 °C 34669.3 hPa East 9 km/h 9 km/h 33 % 0 mm 132.0 W/m2 CLR
16:29 -9.8 °C -18.7 °C 34669.3 hPa Calm     33 % 0 mm 114.0 W/m2 CLR
16:34 -9.8 °C -18.7 °C 34669.3 hPa ENE 6 km/h 6 km/h 33 % 0 mm 100.0 W/m2 CLR
16:39 -10.1 °C -19 °C 34669.3 hPa East 9 km/h 9 km/h 33 % 0 mm 86.0 W/m2 CLR
16:49 -10.7 °C -19.3 °C 34669.3 hPa Calm     34 % 0 mm 54.0 W/m2 SCT
16:59 -11.3 °C -19.6 °C 34659.1 hPa Calm     35 % 0 mm 39.0 W/m2 BKN
17:04 -11.6 °C -19.9 °C 34669.3 hPa Calm     35 % 0 mm 30.0 W/m2 BKN
17:09 -11.9 °C -20.2 °C 34669.3 hPa Calm     35 % 0 mm 23.0 W/m2 BKN
17:14 -12.2 °C -20.4 °C 34669.3 hPa Calm     35 % 0 mm 16.0 W/m2 BKN
17:19 -12.6 °C -20.5 °C 34669.3 hPa Calm     36 % 0 mm 12.0 W/m2 BKN
17:29 -13.2 °C -21.1 °C 34669.3 hPa Calm     36 % 0 mm 9.0 W/m2 BKN
17:34 -13.4 °C -21.2 °C 34669.3 hPa Calm     37 % 0 mm 5.0 W/m2 OVC
17:39 -13.4 °C -21.2 °C 34669.3 hPa Calm     37 % 0 mm 0.0 W/m2 OVC
17:44 -13.8 °C -21.2 °C 34669.3 hPa Calm     38 % 0 mm 0.0 W/m2 OVC
17:49 -13.8 °C -21.2 °C 34669.3 hPa Calm     38 % 0 mm 0.0 W/m2 CLR
17:54 -13.8 °C -21 °C 34669.3 hPa Calm     39 % 0 mm 0.0 W/m2 CLR
17:59 -13.4 °C -20.7 °C 34669.3 hPa Calm     39 % 0 mm 0.0 W/m2 CLR
18:09 -13.2 °C -20.1 °C 34669.3 hPa Calm     41 % 0 mm 0.0 W/m2 CLR
18:14 -13.4 °C -20.2 °C 34669.3 hPa Calm     42 % 0 mm 0.0 W/m2 CLR
18:24 -13.8 °C -20.3 °C 34669.3 hPa Calm     43 % 0 mm 0.0 W/m2 CLR
18:29 -14.1 °C -20.2 °C 34669.3 hPa Calm     45 % 0 mm 0.0 W/m2 CLR
18:34 -14.1 °C -20.1 °C 34669.3 hPa Calm     46 % 0 mm 0.0 W/m2 CLR
18:39 -14.4 °C -20.1 °C 34669.3 hPa Calm     48 % 0 mm 0.0 W/m2 CLR
18:44 -14.4 °C -19.9 °C 34669.3 hPa Calm     49 % 0 mm 0.0 W/m2 CLR
18:49 -14.7 °C -20.1 °C 34669.3 hPa Calm     50 % 0 mm 0.0 W/m2 CLR
18:59 -15.3 °C -20.3 °C 34682.8 hPa Calm     52 % 0 mm 0.0 W/m2 CLR
19:09 -15.3 °C -20.2 °C 34682.8 hPa Calm     53 % 0 mm 0.0 W/m2 CLR
19:14 -15.6 °C -20.4 °C 34682.8 hPa Calm     53 % 0 mm 0.0 W/m2 CLR
19:19 -15.6 °C -20.3 °C 34682.8 hPa Calm     54 % 0 mm 0.0 W/m2 CLR
19:29 -15.9 °C -20.6 °C 34682.8 hPa Calm     54 % 0 mm 0.0 W/m2 CLR
19:34 -16.2 °C -20.8 °C 34682.8 hPa Calm     55 % 0 mm 0.0 W/m2 CLR
19:35 -16.2 °C -20.8 °C 34682.8 hPa Calm     55 % 0 mm 0.0 W/m2 CLR
19:39 -16.6 °C -21.1 °C 34682.8 hPa Calm     55 % 0 mm 0.0 W/m2 CLR
19:50 -16.8 °C -21.2 °C 34669.3 hPa Calm     56 % 0 mm 0.0 W/m2 CLR
19:54 -17.2 °C -21.5 °C 34669.3 hPa Calm     56 % 0 mm 0.0 W/m2 CLR
20:05 -17.2 °C -21.2 °C 34669.3 hPa Calm     58 % 0 mm 0.0 W/m2 CLR
20:10 -17.2 °C -21.2 °C 34669.3 hPa Calm     58 % 0 mm 0.0 W/m2 CLR
20:15 -17.2 °C -21.2 °C 34669.3 hPa Calm     58 % 0 mm 0.0 W/m2 CLR
20:20 -17.2 °C -21.1 °C 34669.3 hPa Calm     59 % 0 mm 0.0 W/m2 CLR
20:30 -17.4 °C -21.4 °C 34669.3 hPa Calm     59 % 0 mm 0.0 W/m2 CLR
20:45 -17.8 °C -21.6 °C 34669.3 hPa Calm     60 % 0 mm 0.0 W/m2 CLR
20:55 -17.8 °C -21.4 °C 34669.3 hPa Calm     61 % 0 mm 0.0 W/m2 CLR
21:00 -17.8 °C -21.4 °C 34669.3 hPa Calm     61 % 0 mm 0.0 W/m2 CLR
21:10 -17.2 °C -20.8 °C 34669.3 hPa Calm     62 % 0 mm 0.0 W/m2 CLR
21:20 -16.8 °C -20.3 °C 34669.3 hPa WSW 6 km/h 6 km/h 63 % 0 mm 0.0 W/m2 CLR
21:35 -17.2 °C -20.5 °C 34669.3 hPa Calm     64 % 0 mm 0.0 W/m2 CLR
21:45 -17.2 °C -20.5 °C 34669.3 hPa WSW 6 km/h 6 km/h 64 % 0 mm 0.0 W/m2 CLR
21:50 -17.2 °C -20.4 °C 34669.3 hPa Calm     65 % 0 mm 0.0 W/m2 CLR
22:00 -17.2 °C -20.3 °C 34669.3 hPa WSW 6 km/h 6 km/h 66 % 0 mm 0.0 W/m2 CLR
22:05 -17.4 °C -20.6 °C 34669.3 hPa Calm     66 % 0 mm 0.0 W/m2 CLR
22:10 -17.4 °C -20.6 °C 34669.3 hPa Calm     66 % 0 mm 0.0 W/m2 CLR
22:15 -17.4 °C -20.6 °C 34669.3 hPa WSW 5.1 km/h 5.1 km/h 66 % 0 mm 0.0 W/m2 CLR
22:20 -17.8 °C -20.8 °C 34669.3 hPa Calm     67 % 0 mm 0.0 W/m2 CLR
22:25 -17.8 °C -20.8 °C 34669.3 hPa Calm     67 % 0 mm 0.0 W/m2 CLR
22:30 -17.8 °C -20.8 °C 34669.3 hPa Calm     67 % 0 mm 0.0 W/m2 CLR
22:35 -17.8 °C -20.8 °C 34669.3 hPa Calm     67 % 0 mm 0.0 W/m2 CLR
22:42 -17.8 °C -20.7 °C 34669.3 hPa West 6 km/h 6 km/h 68 % 0 mm 0.0 W/m2 CLR
22:47 -17.4 °C -20.4 °C 34669.3 hPa WSW 6 km/h 6 km/h 68 % 0 mm 0.0 W/m2 CLR
22:52 -17.4 °C -20.4 °C 34669.3 hPa WSW 9 km/h 9 km/h 68 % 0 mm 0.0 W/m2 CLR
22:57 -17.8 °C -20.7 °C 34669.3 hPa Calm     68 % 0 mm 0.0 W/m2 CLR
23:02 -17.8 °C -20.8 °C 34669.3 hPa Calm     67 % 0 mm 0.0 W/m2 CLR
23:07 -17.8 °C -20.7 °C 34669.3 hPa Calm     68 % 0 mm 0.0 W/m2 CLR
23:12 -17.8 °C -20.6 °C 34669.3 hPa Calm     69 % 0 mm 0.0 W/m2 CLR
23:22 -17.8 °C -20.4 °C 34669.3 hPa Calm     70 % 0 mm 0.0 W/m2 CLR
23:27 -17.8 °C -20.4 °C 34669.3 hPa Calm     70 % 0 mm 0.0 W/m2 CLR
23:32 -18.1 °C -20.9 °C 34669.3 hPa Calm     69 % 0 mm 0.0 W/m2 CLR
23:37 -18.1 °C -20.9 °C 34669.3 hPa Calm     69 % 0 mm 0.0 W/m2 CLR
23:44 -18.4 °C -21.1 °C 34669.3 hPa WSW 9 km/h 9 km/h 70 % 0 mm 0.0 W/m2 CLR
23:49 -18.4 °C -20.9 °C 34659.1 hPa Calm     71 % 0 mm 0.0 W/m2 CLR
23:54 -18.4 °C -20.9 °C 34659.1 hPa WSW 9 km/h 9 km/h 71 % 0 mm 0.0 W/m2 CLR
23:59 -18.4 °C -20.8 °C 34659.1 hPa WSW 15 km/h 15 km/h 72 % 0 mm 0.0 W/m2 CLR
Lo Temps de Massalio
Compliments of Weather Underground - 1 mb